User: anonymous   Login
Location: Hiram
(41.3130°N, 81.1440°W)
Time: 20:10:09
(UTC-05:00)
Language:

Iridium 62 - Orbit

View from above orbital plane
View from above orbital plane
View from above satellite
View from above satellite

Ground track
Ground track

The orbit data is extracted from the following two-line orbital elements,

1 25285U 98021A   14327.36204678  .00000611  00000-0  21117-3 0   214
2 25285 086.3979 255.4650 0002126 102.2287 257.9147 14.34217805870742
Epoch (UTC): 23 November 2014 08:41:20
Eccentricity: 0.0002126
inclination: 86.3979°
perigee height: 776 km
apogee height: 779 km
right ascension of ascending node: 255.4650°
argument of perigee: 102.2287°
revolutions per day: 14.34217805
mean anomaly at epoch: 257.9147°
orbit number at epoch: 87074

The dashed part of the orbit path shows where the satellite is in the earth's shadow,  

DLR